Regional Weather Roundup
Issued by NWS

Home | Current Version | Previous Version | Graphics & Text | Print | Product List | Glossary On
Versions: 1 2 3 4 5 6 7 8 9 10 11 12 13 14 15 16 17 18 19 20 21 22 23 24 25 26 27 28 29 30 31 32 33 34 35 36 37 38 39 40 41 42 43 44 45 46 47 48 49 50
000
ASUS45 KTFX 282119
RWRMT
MONTANA HOURLY WEATHER ROUNDUP
NATIONAL WEATHER SERVICE GREAT FALLS MT
319 PM MDT THU AUG 28 2014

NOTE: "FAIR" INDICATES FEW OR NO CLOUDS BELOW 12000 FEET WITH NO
SIGNIFICANT WEATHER AND/OR OBSTRUCTIONS TO VISIBILITY.

* THESE STATIONS ARE NOT UNDER NWS QUALITY CONTROL. THEY DO NOT
   REPORT WEATHER SUCH AS PRECIPITATION OR FOG.

MTZ001>007-043-282200-
WEST OF THE DIVIDE
CITY           SKY/WX    TMP DP  RH WIND       PRES   REMARKS
KALISPELL      PTCLDY    81  41  24 W13       29.93S
MISSOULA       SUNNY     84  43  24 E3        29.97F
BUTTE          PTCLDY    79  37  22 NW9       30.08F
MULLAN PASS    PTCLDY    66  43  43 VRB7      30.16S
* LINCOLN      N/A       80  45  29 SW6G19     N/A
* LOOKOUT PASS N/A       71  46  41 SE10G15    N/A
* POLSON       N/A       86  43  22 SW4G11     N/A
* RONAN APT    SUNNY     84  43  24 N/A        N/A
* SEELEY LAKE  N/A       80  42  26 NW7G16     N/A
* THOMP F APT  PTCLDY    72  46  40 S8G16      N/A
$$

MTZ008-052>055-282200-
SOUTHWEST MONTANA
CITY           SKY/WX    TMP DP  RH WIND       PRES   REMARKS
BOZEMAN        SUNNY     84  45  26 CALM      30.02F
DILLON         SUNNY     82  37  20 SW12G22   30.06F
W YELLOWSTONE  PTCLDY    73  45  37 SW18G26   30.21F
* THREE FORKS  SUNNY     84  61  46 S6         N/A   HI  84
* BOULDER HILL N/A       77  39  26 N1         N/A
* MONIDA PASS  N/A       68  47  47 SE19G24    N/A
* RAYNOLDS PAS N/A       73  59  62 SW8G19     N/A
* WHITEHALL    N/A       86  45  24 SW13G23    N/A
* WISE RIVER   N/A       78  37  23 W16G27     N/A
$$

MTZ009>010-012-014-046-048-049-054-282200-
EAST SLOPES AND CENTRAL MONTANA
CITY           SKY/WX    TMP DP  RH WIND       PRES   REMARKS
CUT BANK       PTCLDY    73  52  48 N3        29.94F
GREAT FALLS    SUNNY     86  45  24 W15G23    29.91F
HELENA         SUNNY     84  46  26 VRB5      29.96F
MALMSTROM AFB  PTSUNNY   84  45  26 W20       29.92F
* CONRAD       PTCLDY    79  57  47 N6         N/A
* EAST GLACIER N/A       73  44  35 W16G21     N/A
* MONARCH      N/A       76  36  23 W17G31     N/A
* PENDROY      N/A       77  52  42 NE6G12     N/A
* ROGERS PASS  N/A       76  39  26 E7G20      N/A
* SAINT MARY   N/A       80  50  35 W6G16      N/A
* SWEET GRASS  N/A       70  52  53 NE6G12     N/A
* WHITE SULPH  N/A       79  42  27 W5G15      N/A
$$

MTZ011-013-016-021-035-040-045-047-050-051-282200-
NORTH CENTRAL MONTANA
CITY           SKY/WX    TMP DP  RH WIND       PRES   REMARKS
HAVRE          PTCLDY    81  52  37 N7        29.88F
LEWISTOWN      SUNNY     82  41  23 N7G21     29.98F
* CHINOOK      PTCLDY    81  52  37 W10G16    29.87F
* FORT BENTON  SUNNY     88  45  22 SW6G16    29.88F
* CHESTER      N/A       80  44  28 SW7G13     N/A
* DENTON       N/A       86  40  20 VRB3G11    N/A
* GEYSER       N/A       83  42  23 NW11G24    N/A
* JUDITH GAP   N/A       79  41  26 NW9G14     N/A
* LOMA         N/A       87  48  26 NW7G12     N/A
$$

MTZ017>020-022>027-061-062-282200-
NORTHEAST MONTANA
CITY           SKY/WX    TMP DP  RH WIND       PRES   REMARKS
GLASGOW        SUNNY     88  50  27 W17       29.83F
GLENDIVE       PTSUNNY   84  54  36 W12       29.86F
JORDAN         SUNNY     86  48  27 VRB6      29.87F
SIDNEY         SUNNY     84  59  43 S10       29.82F HI  84
WOLF POINT     SUNNY     90  54  29 SW9       29.81F
* BEAVER HILL  N/A       86  48  27 W6G13      N/A
* CIRCLE       N/A       86  54  33 W5G10      N/A
* LINDSAY DVD  N/A       85  50  30 W12G17     N/A
* NAVAJO       N/A       87  48  26 W18G26     N/A
* SACO         N/A       87  51  29 W16        N/A
$$

MTZ028>042-056>058-282200-
SOUTHCENTRAL AND SOUTHEAST MONTANA
CITY           SKY/WX    TMP DP  RH WIND       PRES   REMARKS
BAKER          SUNNY     86  52  31 NW12      29.92F
BILLINGS       PTCLDY    88  45  22 W8G20     29.96F
LIVINGSTON     SUNNY     84  36  18 W12G23    30.01F
MILES CITY     SUNNY     90  45  21 W12       29.87F
* LAUREL APT   SUNNY     88  46  23 W10        N/A
* ROUNDUP APT  SUNNY     86  45  24 N7         N/A
* ALZADA       N/A       85  44  24 NW6G13     N/A
* HYSHAM       N/A       85  42  22 SW3G9      N/A
* LAME DEER    N/A       80  46  30 W12G17     N/A
* REED POINT   N/A       86  42  21 W10        N/A
* ROSCOE HILL  N/A       81  29  15 N10G15     N/A
$$

REGIONAL REPORTS...DAKOTAS
CITY           SKY/WX    TMP DP  RH WIND       PRES   REMARKS
WILLISTON      SUNNY     90  54  29 SW12      29.80F
DICKINSON      PTCLDY    84  54  36 W6        29.86F
BEACH          N/A       84  52  33 W7        29.89F
CROSBY         SUNNY     90  50  25 SW9       29.77F
TIOGA          SUNNY     90  52  27 SW10      29.84F
WATFORD CITY   PTSUNNY   90  52  27 SW3       29.80F
BISMARCK       CLOUDY    73  66  79 S8        29.88F
GRAND FORKS    CLOUDY    75  66  74 S13       29.88F
FARGO          CLOUDY    72  64  76 SE15      29.91F
BUFFALO SD     PTSUNNY   82  48  31 NW8       29.85F
RAPID CITY     CLOUDY    75  55  50 CALM      29.96F
$$

REGIONAL REPORTS...WYOMING/IDAHO/WASHINGTON
CITY           SKY/WX    TMP DP  RH WIND       PRES   REMARKS
GILLETTE       PTCLDY    82  43  25 N13       30.01F
SHERIDAN       SUNNY     86  43  22 N12G29    30.00F
CODY           CLOUDY    79  43  28 SE8       30.06F
YELLOWSTONE LA SUNNY     70  36  29 N/A       30.31F
SALMON         SUNNY     81  46  29 N5        29.99F
MULLAN PASS    PTCLDY    66  43  43 VRB7      30.16S
SPOKANE        PTCLDY    81  45  28 SW21      29.98F
$$

REGIONAL REPORTS...ALBERTA
CITY           SKY/WX    TMP DP  RH WIND       PRES   REMARKS
CALGARY        LGT RAIN  48  46  93 N15       30.07S
LETHBRIDGE     PTSUNNY   70  52  53 E7        29.94F
MEDICINE HAT   PTSUNNY   77  55  47 NE8       29.90F
EDMONTON       PTSUNNY   64  46  52 NW3       29.99S
WATERTON GATE  N/A       70  54  57 NE6        N/A
CARDSTON       N/A       72  55  55 NE3        N/A
MILK RIVER     N/A       73  52  48 E5         N/A
$$

REGIONAL REPORTS...SASKATCHEWAN
CITY           SKY/WX    TMP DP  RH WIND       PRES   REMARKS
SWIFT CURRENT  PTSUNNY   77  54  45 N10G23    29.84S
MOOSE JAW      SUNNY     79  63  58 N9        29.79S
REGINA         SUNNY     81  64  56 N7        29.77F HI  83
VAL MARIE      N/A       82  54  38 NW16G26    N/A
ASSINIBOIA     N/A       84  50  31 W13G20     N/A
CORONACH       N/A       86  48  27 W16G29     N/A

$$




USA.gov is the U.S. government's official web portal to all federal, state and local government web resources and services.